Arctic Village, AK

10:23 PM AKDT on October 18, 2017 (GMT -0800)
Arctic Village

Weather History for PARC - March, 2013

Change the Weather History Date:

Friday, March 8, 2013

  Actual Average Record
Temperature  
Mean Temperature 10 °F -  
Max Temperature 17 °F 6 °F 23 °F (1988)
Min Temperature 3 °F -23 °F -49 °F (1971)
Degree Days  
Heating Degree Days 55    
Moisture  
Dew Point 2 °F    
Average Humidity 68    
Maximum Humidity 85    
Minimum Humidity 28    
Precipitation  
Precipitation 0.00 in - - ()
Sea Level Pressure  
Sea Level Pressure 29.63 in    
Wind  
Wind Speed 6 mph (ENE)    
Max Wind Speed 12 mph    
Max Gust Speed -    
Visibility 10 miles    
Events      
Averages and records for this station are not official NWS values.
T = Trace of Precipitation, MM = Missing Value Source: NWS Daily Summary

Daily Weather History Graph

Daily Weather History Graph

Search for Another Location

Airport or City:

Trip Planner

Search our weather history database for the weather conditions in past years. The results will help you decide how hot, cold, wet, or windy it might be!

Date:

Astronomy

Mar. 08, 2013 Rise Set
Actual Time 7:30 AM AKST 6:17 PM AKST
Civil Twilight 6:34 AM AKST 7:12 PM AKST
Nautical Twilight 5:29 AM AKST 8:18 PM AKST
Astronomical Twilight 4:17 AM AKST 9:31 PM AKST
Moon 6:39 AM AKST (3/8) 2:12 PM AKST (3/8)
Length of Visible Light 12h 38m
Length of Day
10h 46m
Waning Crescent, 11% of the Moon is Illuminated
Mar 8
Waning Crescent
Mar 11
New
Mar 19
First Quarter
Mar 27
Full
Apr 2
Last Quarter

Hourly Weather History & Observations

Time (AKST) Temp. Windchill Dew Point Humidity Pressure Visibility Wind Dir Wind Speed Gust Speed Precip Events Conditions
12:16 AM 3.2 °F -7.8 °F -16.6 °F 39% 29.68 in 10.0 mi ESE 5.8 mph - N/A   Mostly Cloudy
12:36 AM 3.2 °F -9.1 °F -16.6 °F 39% 29.68 in 10.0 mi East 6.9 mph - N/A   Overcast
12:56 AM 5.0 °F -5.6 °F -5.8 °F 61% 29.68 in 10.0 mi East 5.8 mph - N/A   Overcast
1:16 AM 5.0 °F -8.1 °F -7.6 °F 56% 29.68 in 10.0 mi East 8.1 mph - N/A   Mostly Cloudy
1:36 AM 6.8 °F -4.8 °F -20.2 °F 28% 29.68 in 10.0 mi East 6.9 mph - N/A   Partly Cloudy
1:56 AM 5.0 °F -5.6 °F -14.8 °F 40% 29.68 in 10.0 mi East 5.8 mph - N/A   Partly Cloudy
2:16 AM 5.0 °F -5.6 °F -9.4 °F 52% 29.68 in 10.0 mi East 5.8 mph - N/A   Clear
2:36 AM 3.2 °F -9.1 °F -14.8 °F 43% 29.67 in 10.0 mi ENE 6.9 mph - N/A   Clear
2:56 AM 3.2 °F -7.8 °F -9.4 °F 56% 29.67 in 10.0 mi ENE 5.8 mph - N/A   Scattered Clouds
3:16 AM 5.0 °F -6.9 °F -2.2 °F 72% 29.67 in 10.0 mi ENE 6.9 mph - N/A   Mostly Cloudy
3:36 AM 6.8 °F -5.9 °F -2.2 °F 67% 29.66 in 10.0 mi ENE 8.1 mph - N/A   Overcast
3:56 AM 6.8 °F -8.6 °F -13.0 °F 40% 29.65 in 10.0 mi ENE 11.5 mph - N/A   Scattered Clouds
4:16 AM 6.8 °F -5.9 °F 1.4 °F 79% 29.64 in 10.0 mi ENE 8.1 mph - N/A   Partly Cloudy
4:36 AM 6.8 °F -3.5 °F 1.4 °F 79% 29.65 in 10.0 mi East 5.8 mph - N/A   Clear
4:56 AM 6.8 °F -4.8 °F 1.4 °F 79% 29.66 in 10.0 mi East 6.9 mph - N/A   Clear
5:16 AM 8.6 °F -3.7 °F 1.4 °F 73% 29.65 in 10.0 mi East 8.1 mph - N/A   Clear
5:36 AM 8.6 °F -2.6 °F 3.2 °F 79% 29.65 in 10.0 mi East 6.9 mph - N/A   Partly Cloudy
5:56 AM 10.4 °F 0.8 °F 3.2 °F 73% 29.65 in 10.0 mi East 5.8 mph - N/A   Partly Cloudy
6:16 AM 10.4 °F 0.8 °F 1.4 °F 67% 29.64 in 10.0 mi East 5.8 mph - N/A   Partly Cloudy
6:36 AM 10.4 °F -0.4 °F 3.2 °F 73% 29.64 in 10.0 mi East 6.9 mph - N/A   Mostly Cloudy
6:56 AM 10.4 °F -3.3 °F 3.2 °F 73% 29.63 in 10.0 mi East 10.4 mph - N/A   Overcast
7:16 AM 8.6 °F -2.6 °F 1.4 °F 73% 29.63 in 10.0 mi ENE 6.9 mph - N/A   Overcast
7:36 AM 8.6 °F -3.7 °F 3.2 °F 79% 29.63 in 10.0 mi ENE 8.1 mph - N/A   Overcast
7:56 AM 8.6 °F -1.3 °F 3.2 °F 79% 29.64 in 10.0 mi NE 5.8 mph - N/A   Mostly Cloudy
8:16 AM 10.4 °F -2.4 °F 3.2 °F 73% 29.63 in 10.0 mi NE 9.2 mph - N/A   Overcast
8:36 AM 10.4 °F -1.5 °F 5.0 °F 79% 29.63 in 10.0 mi East 8.1 mph - N/A   Mostly Cloudy
8:56 AM 10.4 °F 2.2 °F 5.0 °F 79% 29.63 in 10.0 mi ENE 4.6 mph - N/A   Overcast
9:16 AM 10.4 °F 4.0 °F 1.4 °F 67% 29.64 in 10.0 mi East 3.5 mph - N/A   Overcast
9:36 AM 10.4 °F 4.0 °F 3.2 °F 73% 29.64 in 10.0 mi East 3.5 mph - N/A   Scattered Clouds
9:56 AM 10.4 °F -0.4 °F 3.2 °F 73% 29.64 in 10.0 mi ESE 6.9 mph - N/A   Clear
10:16 AM 12.2 °F 2.9 °F 6.8 °F 79% 29.64 in 10.0 mi East 5.8 mph - N/A   Clear
10:36 AM 12.2 °F 0.7 °F 5.0 °F 73% 29.64 in 10.0 mi East 8.1 mph - N/A   Clear
10:56 AM 12.2 °F -0.2 °F 3.2 °F 67% 29.64 in 10.0 mi East 9.2 mph - N/A   Clear
11:16 AM 14.0 °F 1.2 °F 3.2 °F 62% 29.63 in 10.0 mi East 10.4 mph - N/A   Clear
11:36 AM 12.2 °F -0.2 °F 3.2 °F 67% 29.63 in 10.0 mi East 9.2 mph - N/A   Scattered Clouds
11:56 AM 12.2 °F 1.7 °F 6.8 °F 79% 29.63 in 10.0 mi East 6.9 mph - N/A   Overcast
12:16 PM 14.0 °F 2.0 °F 6.8 °F 73% 29.62 in 10.0 mi ENE 9.2 mph - N/A   Mostly Cloudy
12:36 PM 14.0 °F 3.9 °F 6.8 °F 73% 29.62 in 10.0 mi ENE 6.9 mph - N/A   Mostly Cloudy
12:56 PM 15.8 °F 4.2 °F 6.8 °F 68% 29.62 in 10.0 mi East 9.2 mph - N/A   Overcast
1:16 PM 15.8 °F 6.1 °F 6.8 °F 68% 29.62 in 10.0 mi East 6.9 mph - N/A   Overcast
1:36 PM 15.8 °F 6.1 °F 5.0 °F 62% 29.62 in 10.0 mi East 6.9 mph - N/A   Overcast
1:56 PM 15.8 °F 8.6 °F 6.8 °F 68% 29.63 in 10.0 mi East 4.6 mph - N/A   Overcast
2:16 PM 15.8 °F 8.6 °F 6.8 °F 68% 29.63 in 10.0 mi East 4.6 mph - N/A   Overcast
2:36 PM 15.8 °F 6.1 °F 6.8 °F 68% 29.62 in 10.0 mi East 6.9 mph - N/A   Overcast
2:56 PM 17.6 °F 6.4 °F 6.8 °F 63% 29.62 in 10.0 mi ENE 9.2 mph - N/A   Scattered Clouds
3:16 PM 15.8 °F 4.2 °F 6.8 °F 68% 29.62 in 10.0 mi ENE 9.2 mph - N/A   Clear
3:36 PM 15.8 °F 5.1 °F 6.8 °F 68% 29.61 in 10.0 mi ENE 8.1 mph - N/A   Clear
3:56 PM 15.8 °F 8.6 °F 6.8 °F 68% 29.61 in 10.0 mi ENE 4.6 mph - N/A   Clear
4:16 PM 15.8 °F 7.2 °F 3.2 °F 58% 29.61 in 10.0 mi ENE 5.8 mph - N/A   Clear
4:36 PM 14.0 °F 6.5 °F 5.0 °F 67% 29.61 in 10.0 mi ENE 4.6 mph - N/A   Clear
4:56 PM 14.0 °F - 3.2 °F 62% 29.61 in 10.0 mi Calm Calm - N/A   Mostly Cloudy
5:16 PM 14.0 °F - 5.0 °F 67% 29.61 in 10.0 mi Calm Calm - N/A   Overcast
5:36 PM 14.0 °F - 3.2 °F 62% 29.61 in 10.0 mi Calm Calm - N/A   Overcast
5:56 PM 14.0 °F - 3.2 °F 62% 29.61 in 10.0 mi Calm Calm - N/A   Overcast
6:16 PM 12.2 °F - 3.2 °F 67% 29.61 in 10.0 mi Calm Calm - N/A   Overcast
6:36 PM 12.2 °F 4.3 °F 3.2 °F 67% 29.61 in 10.0 mi North 4.6 mph - N/A   Overcast
6:56 PM 12.2 °F 1.7 °F 3.2 °F 67% 29.61 in 10.0 mi NNE 6.9 mph - N/A   Overcast
7:16 PM 12.2 °F 4.3 °F 3.2 °F 67% 29.60 in 10.0 mi NNE 4.6 mph - N/A   Overcast
7:36 PM 12.2 °F 4.3 °F 5.0 °F 73% 29.60 in 10.0 mi NE 4.6 mph - N/A   Overcast
7:56 PM 12.2 °F - 6.8 °F 79% 29.61 in 10.0 mi Calm Calm - N/A   Overcast
8:16 PM 12.2 °F - 3.2 °F 67% 29.61 in 10.0 mi Calm Calm - N/A   Overcast
8:36 PM 12.2 °F - 3.2 °F 67% 29.61 in 10.0 mi Calm Calm - N/A   Overcast
8:56 PM 10.4 °F - 5.0 °F 79% 29.61 in 10.0 mi Calm Calm - N/A   Overcast
9:16 PM 12.2 °F - 5.0 °F 73% 29.61 in 10.0 mi Calm Calm - N/A   Overcast
9:36 PM 10.4 °F 4.0 °F 3.2 °F 73% 29.60 in 10.0 mi NNE 3.5 mph - N/A   Overcast
9:56 PM 10.4 °F 4.0 °F 5.0 °F 79% 29.60 in 10.0 mi East 3.5 mph - N/A   Overcast
10:16 PM 10.4 °F 0.8 °F 6.8 °F 85% 29.60 in 10.0 mi East 5.8 mph - N/A   Mostly Cloudy
10:36 PM 10.4 °F 2.2 °F 1.4 °F 67% 29.60 in 10.0 mi East 4.6 mph - N/A   Mostly Cloudy
10:56 PM 10.4 °F - 1.4 °F 67% 29.60 in 10.0 mi Calm Calm - N/A   Partly Cloudy
11:16 PM 8.6 °F 2.0 °F 3.2 °F 79% 29.60 in 10.0 mi NNE 3.5 mph - N/A   Partly Cloudy
11:36 PM 8.6 °F 2.0 °F 1.4 °F 73% 29.60 in 10.0 mi NE 3.5 mph - N/A   Scattered Clouds
11:56 PM 8.6 °F -2.6 °F 1.4 °F 73% 29.60 in 10.0 mi ENE 6.9 mph - N/A   Scattered Clouds